Wetterstats.de || Aktuelle Messwerte || Aktuelle Wetterkarten NEU! || Radar / Satellit NEU! || Wetterarchiv || Langzeitwerte NEU! || Klim. Kenntage || Met. Ereignisse || Agrarwerte || Echtzeitwerte

Monatsübersicht für November 2020 Diagramm
 
Wetter Information zur Wetteranzeige
Zeitraffer
Tageslänge (hh:mm)
Höchsttemperatur in °C
Uhrzeit
Tiefsttemperatur in °C
Uhrzeit
Luftfeuchte (max., in %)
Uhrzeit
Luftfeuchte (min., in %)
Uhrzeit
Luftdruck (max., in hPa)
Uhrzeit
Luftdruck (min., in hPa)
Uhrzeit
Luftdruck (Ø, in hPa)
Regenrate (max, mm/h)
Uhrzeit
Niederschlag in mm
Verdunstung in mm
Solar in W/m² (Ø)
Solar in W/m² (max.)
UV-Index (max.)
Sonnenscheindauer (hh:mm)
Windrichtung (Ø)
Windstärke (Ø in km/h)
Windstärke (Ø in bft)
Windböe (max., in km/h)
Uhrzeit
Windböe (max., in bft)
Uhrzeit
Taupunkt (max., in °C)
Uhrzeit
Taupunkt (min., in °C)
Uhrzeit
Windchill (min., in °C)
Uhrzeit
Gewitterindex (max.)
Uhrzeit
Waldbrandindex (max.)
Uhrzeit
Graslandfeuerindex (max.)
Uhrzeit
Staubsturm-Index (max.)
Uhrzeit
01
Zeitraffer
09:37
14.8
22:00 Uhr
10.3
04:50 Uhr

97
08:00 Uhr
89
21:25 Uhr
1017.5
00:05 Uhr

1011.2
21:40 Uhr
1014.5
1,000
08:00 Uhr
1,200
0.406
70
330
13:55 Uhr
0.7
11:50 Uhr

00:18:00
4,8
1
22,5
21:40 Uhr

4
13.2
23:40 Uhr
9.5
05:10 Uhr
10.3
04:50 Uhr
6
23:40 Uhr
0.0
00:00 Uhr
0.0
00:00 Uhr
0.0
00:00 Uhr
02
Zeitraffer
09:33
20.9
15:00 Uhr
14.5
03:05 Uhr

96
07:45 Uhr
73
15:00 Uhr
1013.9
23:50 Uhr

1009.5
14:15 Uhr
1010.6
6,800
07:50 Uhr
6,600
0.940
110
341
11:30 Uhr
1.3
11:25 Uhr

01:59:00
8,2
2
40,2
13:40 Uhr

5
16.8
12:30 Uhr
13.2
00:10 Uhr
10.8
07:10 Uhr
9
17:40 Uhr
0.0
00:00 Uhr
0.0
00:00 Uhr
0.0
00:00 Uhr
03
Zeitraffer
09:29
15.8
00:00 Uhr
9.7
20:30 Uhr

89
00:15 Uhr
59
14:50 Uhr
1023.7
23:30 Uhr

1014.1
00:00 Uhr
1020.9
0,000
00:00 Uhr
0,000
1.346
188
355
11:50 Uhr
1.3
11:40 Uhr

04:48:00
5,4
1
33,8
00:00 Uhr

5
13.7
00:00 Uhr
6.1
14:50 Uhr
7.0
10:40 Uhr
7
00:00 Uhr
0.0
00:00 Uhr
0.0
00:00 Uhr
0.0
00:00 Uhr
04
Zeitraffer
09:25
11.8
14:00 Uhr
3.9
23:20 Uhr

94
23:45 Uhr
66
13:50 Uhr
1035.4
23:35 Uhr

1023.6
00:55 Uhr
1029.6
0,000
00:00 Uhr
0,000
1.270
176
377
12:00 Uhr
1.2
11:45 Uhr

05:07:00
4,9
1
25,7
12:35 Uhr

4
7.4
00:00 Uhr
2.9
23:15 Uhr
3.9
23:20 Uhr
0
00:00 Uhr
0.0
00:00 Uhr
0.0
00:00 Uhr
0.0
00:00 Uhr
05
Zeitraffer
09:21
11.3
14:00 Uhr
2.2
06:45 Uhr

96
07:40 Uhr
73
14:00 Uhr
1037.6
09:15 Uhr

1034.7
23:45 Uhr
1036.1
0,000
00:00 Uhr
0,000
1.041
182
374
12:25 Uhr
1.1
11:40 Uhr

06:42:00
5,5
1
24,1
12:10 Uhr

4
7.2
13:25 Uhr
1.5
06:45 Uhr
2.2
06:45 Uhr
0
00:00 Uhr
0.0
00:00 Uhr
0.0
00:00 Uhr
0.0
00:00 Uhr
06
Zeitraffer
09:19
10.1
13:00 Uhr
8.3
05:55 Uhr

93
05:55 Uhr
84
00:00 Uhr
1034.9
11:10 Uhr

1032.8
23:40 Uhr
1034.1
0,000
00:00 Uhr
0,000
0.356
43
100
10:55 Uhr
0.5
10:55 Uhr

00:00:00
5,5
1
20,9
02:35 Uhr

4
8.4
11:15 Uhr
6.3
00:00 Uhr
4.6
08:05 Uhr
0
00:00 Uhr
0.0
00:00 Uhr
0.0
00:00 Uhr
0.0
00:00 Uhr
07
Zeitraffer
09:15
13.3
14:00 Uhr
2.4
23:50 Uhr

97
06:05 Uhr
60
14:20 Uhr
1032.9
00:10 Uhr

1024.6
23:10 Uhr
1028.4
0,000
00:00 Uhr
0,000
0.838
175
325
11:50 Uhr
1.1
11:05 Uhr

05:23:00
3,0
1
17,7
09:10 Uhr

3
7.8
01:00 Uhr
1.5
23:45 Uhr
2.4
23:50 Uhr
0
00:00 Uhr
0.0
00:00 Uhr
0.1
14:25 Uhr
0.0
00:00 Uhr
08
Zeitraffer
09:11
10.7
14:00 Uhr
0.7
03:55 Uhr

96
08:10 Uhr
73
12:35 Uhr
1027.7
23:50 Uhr

1024.2
00:55 Uhr
1025.8
0,000
00:00 Uhr
0,000
0.686
165
292
12:00 Uhr
0.9
11:05 Uhr

06:11:00
2,9
1
16,1
17:05 Uhr

3
7.0
12:45 Uhr
0.0
03:55 Uhr
0.7
03:55 Uhr
0
00:00 Uhr
0.0
00:00 Uhr
0.0
00:00 Uhr
0.0
00:00 Uhr
09
Zeitraffer
09:08
6.6
16:00 Uhr
5.3
00:00 Uhr

97
02:00 Uhr
92
15:05 Uhr
1029.3
23:55 Uhr

1027.2
05:30 Uhr
1028.1
0,000
00:00 Uhr
0,000
0.152
29
63
13:00 Uhr
0.0
00:00 Uhr

00:00:00
6,9
1
19,3
00:35 Uhr

3
5.4
12:50 Uhr
4.4
23:40 Uhr
0.8
19:15 Uhr
0
00:00 Uhr
0.0
00:00 Uhr
0.0
00:00 Uhr
0.0
00:00 Uhr
10
Zeitraffer
09:04
6.0
17:00 Uhr
4.5
05:40 Uhr

95
00:40 Uhr
90
15:40 Uhr
1030.4
10:25 Uhr

1028.9
03:55 Uhr
1029.6
0,000
00:00 Uhr
0,000
0.152
26
56
11:55 Uhr
0.0
00:00 Uhr

00:00:00
6,3
1
19,3
00:55 Uhr

3
5.0
22:15 Uhr
3.8
05:15 Uhr
0.2
01:35 Uhr
0
00:00 Uhr
0.0
00:00 Uhr
0.0
00:00 Uhr
0.0
00:00 Uhr
11
Zeitraffer
09:01
7.3
14:00 Uhr
5.8
04:20 Uhr

94
23:40 Uhr
78
13:15 Uhr
1029.6
00:02 Uhr

1024.0
23:55 Uhr
1027.0
0,000
00:02 Uhr
0,000
0.203
46
95
12:20 Uhr
0.0
00:02 Uhr

00:00:00
3,3
1
12,9
00:07 Uhr

2
5.2
23:40 Uhr
3.5
17:05 Uhr
4.7
00:07 Uhr
0
00:02 Uhr
0.0
00:02 Uhr
0.0
00:02 Uhr
0.0
00:02 Uhr
12
Zeitraffer
08:58
11.0
14:00 Uhr
5.4
23:50 Uhr

96
01:20 Uhr
71
13:50 Uhr
1024.1
00:00 Uhr

1019.4
14:30 Uhr
1021.1
0,000
00:00 Uhr
0,000
0.610
98
345
12:45 Uhr
0.8
12:45 Uhr

01:27:00
4,3
1
24,1
12:10 Uhr

4
6.3
13:45 Uhr
4.2
22:30 Uhr
5.3
17:20 Uhr
0
00:00 Uhr
0.0
00:00 Uhr
0.0
00:00 Uhr
0.0
00:00 Uhr
13
Zeitraffer
08:54
12.1
14:00 Uhr
4.9
00:40 Uhr

95
01:45 Uhr
75
14:05 Uhr
1021.1
09:10 Uhr

1017.5
20:35 Uhr
1019.5
0,000
00:00 Uhr
0,000
0.584
126
397
10:50 Uhr
0.7
10:30 Uhr

03:23:00
2,5
1
20,9
14:05 Uhr

4
8.0
14:00 Uhr
3.9
00:15 Uhr
4.9
00:40 Uhr
0
00:00 Uhr
0.0
00:00 Uhr
0.5
14:55 Uhr
0.0
00:00 Uhr
14
Zeitraffer
08:51
15.2
14:00 Uhr
7.4
00:00 Uhr

96
04:00 Uhr
80
13:50 Uhr
1019.1
08:45 Uhr

1016.5
23:50 Uhr
1018.3
0,000
00:00 Uhr
0,000
0.533
106
346
11:35 Uhr
0.8
11:30 Uhr

01:59:00
2,3
1
17,7
10:35 Uhr

3
11.9
11:55 Uhr
6.5
00:00 Uhr
7.4
00:00 Uhr
3
16:55 Uhr
0.0
00:00 Uhr
0.7
13:25 Uhr
0.0
00:00 Uhr
15
Zeitraffer
08:47
15.1
13:00 Uhr
6.6
21:30 Uhr

93
00:00 Uhr
67
12:55 Uhr
1016.7
00:20 Uhr

1008.7
23:40 Uhr
1013.3
0,000
00:00 Uhr
0,000
0.864
119
306
10:35 Uhr
0.8
12:00 Uhr

03:11:00
4,7
1
25,7
11:45 Uhr

4
9.1
13:20 Uhr
4.6
21:30 Uhr
5.3
22:40 Uhr
0
00:00 Uhr
0.0
00:00 Uhr
0.9
13:10 Uhr
0.0
00:00 Uhr


 
Wetter Information zur Wetteranzeige
Zeitraffer
Tageslänge (hh:mm)
Höchsttemperatur in °C
Uhrzeit
Tiefsttemperatur in °C
Uhrzeit
Luftfeuchte (max., in %)
Uhrzeit
Luftfeuchte (min., in %)
Uhrzeit
Luftdruck (max., in hPa)
Uhrzeit
Luftdruck (min., in hPa)
Uhrzeit
Luftdruck (Ø, in hPa)
Regenrate (max, mm/h)
Uhrzeit
Niederschlag in mm
Verdunstung in mm
Solar in W/m² (Ø)
Solar in W/m² (max.)
UV-Index (max.)
Sonnenscheindauer (hh:mm)
Windrichtung (Ø)
Windstärke (Ø in km/h)
Windstärke (Ø in bft)
Windböe (max., in km/h)
Uhrzeit
Windböe (max., in bft)
Uhrzeit
Taupunkt (max., in °C)
Uhrzeit
Taupunkt (min., in °C)
Uhrzeit
Windchill (min., in °C)
Uhrzeit
Gewitterindex (max.)
Uhrzeit
Waldbrandindex (max.)
Uhrzeit
Graslandfeuerindex (max.)
Uhrzeit
Staubsturm-Index (max.)
Uhrzeit
16
Zeitraffer
08:45
12.3
13:00 Uhr
6.9
00:00 Uhr

95
08:40 Uhr
72
14:30 Uhr
1020.0
23:45 Uhr

1008.2
01:35 Uhr
1013.0
0,000
00:00 Uhr
0,600
0.610
90
344
12:35 Uhr
0.8
11:20 Uhr

01:10:00
5,3
1
24,1
11:05 Uhr

4
9.4
11:10 Uhr
4.9
00:30 Uhr
6.1
04:40 Uhr
0
00:00 Uhr
0.0
00:00 Uhr
0.5
14:20 Uhr
0.0
00:00 Uhr
17
Zeitraffer
08:42
11.4
12:00 Uhr
7.8
08:10 Uhr

95
15:45 Uhr
80
11:35 Uhr
1025.5
23:50 Uhr

1020.1
00:00 Uhr
1023.1
0,000
00:00 Uhr
0,400
0.406
62
216
09:25 Uhr
0.6
11:10 Uhr

00:28:00
6,6
1
29,0
13:00 Uhr

4
9.7
17:50 Uhr
6.0
08:25 Uhr
5.9
08:50 Uhr
2
16:50 Uhr
0.0
00:00 Uhr
0.2
12:00 Uhr
0.0
00:00 Uhr
18
Zeitraffer
08:38
12.6
14:00 Uhr
7.3
21:55 Uhr

91
20:20 Uhr
73
12:05 Uhr
1026.8
07:35 Uhr

1016.7
23:45 Uhr
1023.7
0,000
00:00 Uhr
0,000
0.686
68
133
11:25 Uhr
0.7
11:05 Uhr

00:00:00
5,6
1
25,7
11:35 Uhr

4
9.4
00:00 Uhr
5.6
22:30 Uhr
7.3
21:55 Uhr
2
00:05 Uhr
0.0
00:00 Uhr
0.5
12:30 Uhr
0.0
00:00 Uhr
19
Zeitraffer
08:35
11.6
09:00 Uhr
4.7
23:50 Uhr

85
17:35 Uhr
65
12:45 Uhr
1024.5
23:50 Uhr

1013.0
05:50 Uhr
1016.3
1,800
17:25 Uhr
0,400
0.965
59
331
12:30 Uhr
0.8
12:30 Uhr

00:32:00
11,2
2
41,8
17:55 Uhr

6
8.7
10:10 Uhr
1.8
23:30 Uhr
-0.7
23:30 Uhr
0
00:00 Uhr
0.0
00:00 Uhr
0.7
12:50 Uhr
0.0
00:00 Uhr
20
Zeitraffer
08:33
6.4
14:00 Uhr
-0.1
23:30 Uhr

94
23:30 Uhr
75
14:05 Uhr
1034.9
23:00 Uhr

1024.8
00:00 Uhr
1030.2
0,000
00:00 Uhr
0,000
0.610
95
380
12:35 Uhr
0.6
11:30 Uhr

02:22:00
6,5
1
29,0
05:05 Uhr

4
3.1
12:40 Uhr
-1.0
23:00 Uhr
-4.0
06:25 Uhr
0
00:00 Uhr
0.0
00:00 Uhr
0.3
14:05 Uhr
0.0
00:00 Uhr
21
Zeitraffer
08:30
6.8
20:00 Uhr
-0.7
01:00 Uhr

95
01:25 Uhr
65
20:20 Uhr
1035.2
00:45 Uhr

1025.0
23:25 Uhr
1030.5
0,000
00:00 Uhr
0,000
0.838
95
314
10:30 Uhr
0.7
11:30 Uhr

01:57:00
7,9
2
40,2
12:25 Uhr

5
2.2
23:55 Uhr
-1.5
01:00 Uhr
-3.2
10:40 Uhr
0
00:00 Uhr
0.0
00:00 Uhr
0.7
19:25 Uhr
0.0
00:00 Uhr
22
Zeitraffer
08:27
10.3
15:00 Uhr
5.9
23:50 Uhr

92
23:50 Uhr
73
00:00 Uhr
1025.1
00:00 Uhr

1021.6
12:40 Uhr
1022.9
0,000
00:00 Uhr
0,000
0.737
57
244
12:45 Uhr
0.7
12:40 Uhr

00:16:00
8,2
2
33,8
13:10 Uhr

5
7.2
15:00 Uhr
2.1
00:10 Uhr
1.1
01:10 Uhr
0
00:00 Uhr
0.0
00:00 Uhr
0.6
13:20 Uhr
0.0
00:00 Uhr
23
Zeitraffer
08:25
9.0
14:00 Uhr
2.8
23:50 Uhr

94
03:40 Uhr
74
13:30 Uhr
1029.4
23:15 Uhr

1022.3
05:00 Uhr
1025.2
0,000
00:00 Uhr
0,000
0.812
130
293
12:00 Uhr
0.7
11:45 Uhr

04:45:00
7,2
2
32,2
10:40 Uhr

5
4.8
13:55 Uhr
1.5
23:50 Uhr
-1.2
10:40 Uhr
0
00:00 Uhr
0.1
13:20 Uhr
1.3
13:20 Uhr
0.0
00:00 Uhr
24
Zeitraffer
08:22
7.4
15:00 Uhr
0.1
22:55 Uhr

95
21:55 Uhr
79
13:45 Uhr
1029.2
00:00 Uhr

1022.6
23:35 Uhr
1025.7
0,000
00:00 Uhr
0,000
0.457
116
262
12:45 Uhr
0.7
12:10 Uhr

05:05:00
3,4
1
20,9
14:15 Uhr

4
4.2
14:30 Uhr
-0.7
22:50 Uhr
-1.4
09:20 Uhr
0
00:00 Uhr
0.0
00:00 Uhr
1.1
14:05 Uhr
0.0
00:00 Uhr
25
Zeitraffer
08:20
2.1
15:00 Uhr
-1.5
03:15 Uhr

97
06:55 Uhr
94
15:30 Uhr
1022.7
00:00 Uhr

1019.6
15:05 Uhr
1020.5
0,000
00:00 Uhr
0,000
0.076
26
40
11:45 Uhr
0.0
00:00 Uhr

00:09:00
3,3
1
19,3
14:40 Uhr

3
1.8
15:25 Uhr
-2.1
02:55 Uhr
-2.2
06:05 Uhr
0
00:00 Uhr
0.0
00:00 Uhr
0.4
14:40 Uhr
0.0
00:00 Uhr
26
Zeitraffer
08:17
6.9
23:00 Uhr
-0.6
02:45 Uhr

96
22:00 Uhr
91
13:40 Uhr
1021.5
23:20 Uhr

1019.8
13:50 Uhr
1020.6
0,000
00:00 Uhr
0,600
0.127
28
59
11:55 Uhr
0.0
00:00 Uhr

00:00:00
3,6
1
16,1
12:25 Uhr

3
6.4
23:25 Uhr
-1.3
02:25 Uhr
-0.6
02:45 Uhr
0
00:00 Uhr
0.0
00:00 Uhr
0.3
14:25 Uhr
0.0
00:00 Uhr
27
Zeitraffer
08:14
8.0
14:00 Uhr
4.4
18:10 Uhr

97
02:05 Uhr
86
13:35 Uhr
1023.8
23:20 Uhr

1021.1
01:20 Uhr
1022.4
0,000
00:00 Uhr
0,200
0.254
76
302
12:15 Uhr
0.6
12:15 Uhr

01:44:00
2,2
1
14,5
14:25 Uhr

3
7.3
11:55 Uhr
2.8
22:25 Uhr
2.6
15:35 Uhr
0
00:00 Uhr
0.0
00:00 Uhr
0.2
15:30 Uhr
0.0
00:00 Uhr
28
Zeitraffer
08:12
5.7
12:00 Uhr
1.8
23:55 Uhr

91
23:30 Uhr
70
14:15 Uhr
1027.2
21:45 Uhr

1023.4
01:50 Uhr
1025.2
0,000
00:00 Uhr
0,000
0.305
56
273
12:45 Uhr
0.0
00:00 Uhr

00:03:00
2,5
1
17,7
05:05 Uhr

3
2.8
00:00 Uhr
0.5
13:00 Uhr
-0.8
05:00 Uhr
0
00:00 Uhr
0.0
00:00 Uhr
0.5
12:45 Uhr
0.0
00:00 Uhr
29
Zeitraffer
08:09
5.1
14:00 Uhr
0.1
03:35 Uhr

96
04:30 Uhr
80
13:45 Uhr
1027.0
00:00 Uhr

1025.6
14:30 Uhr
1026.4
0,000
00:00 Uhr
0,000
0.254
65
247
10:30 Uhr
0.0
00:00 Uhr

00:13:00
3,1
1
19,3
13:45 Uhr

3
2.9
12:25 Uhr
-1.2
23:05 Uhr
0.1
03:35 Uhr
0
00:00 Uhr
0.0
00:00 Uhr
0.5
14:15 Uhr
0.0
00:00 Uhr
30
Zeitraffer
08:07
2.4
14:00 Uhr
-1.4
02:00 Uhr

95
02:45 Uhr
81
17:10 Uhr
1026.9
00:15 Uhr

1016.3
23:55 Uhr
1023.6
0,000
00:00 Uhr
0,000
0.127
36
66
13:10 Uhr
0.0
00:00 Uhr

00:00:00
3,4
1
17,7
13:15 Uhr

3
0.5
12:25 Uhr
-2.4
02:00 Uhr
-2.4
15:00 Uhr
0
00:00 Uhr
0.3
14:00 Uhr
1.5
14:10 Uhr
0.0
00:00 Uhr
Stationsstandorte || Wetterblog || Wissenswertes || Downloads || Seitenhistorie || Partner || Impressum / Datenschutz